Weather History for KYKM - May, 2014

Change the Weather History Date:

Sunday, May 4, 2014

  Actual Average Record
Temperature  
Mean Temperature 58 °F 54 °F  
Max Temperature 68 °F 69 °F 90 °F (1966)
Min Temperature 47 °F 38 °F 26 °F (1975)
Degree Days  
Heating Degree Days 7 12  
Month to date heating degree days 13 48  
Since 1 July heating degree days 5430 5730  
Cooling Degree Days 0 0  
Month to date cooling degree days 0 0  
Year to date cooling degree days 0 1  
Growing Degree Days 9 (Base 50)    
Moisture  
Dew Point 38 °F    
Average Humidity 50    
Maximum Humidity 66    
Minimum Humidity 34    
Precipitation  
Precipitation T in 0.02 in 0.70 in (1994)
Month to date precipitation T 0.07  
Year to date precipitation 2.79 3.16  
Snow  
Snow 0.00 in 0.00 in 0.00 in (2002)
Month to date snowfall 0.0 0.0  
Year to date snowfall 19.9 8.6  
Since 1 July snowfall 19.9 21.6  
Snow Depth 0.00 in    
Sea Level Pressure  
Sea Level Pressure 29.77 in    
Wind  
Wind Speed 14 mph (SSW)    
Max Wind Speed 30 mph    
Max Gust Speed 39 mph    
Visibility 10 miles    
Events      
T = Trace of Precipitation, MM = Missing Value Source: NWS Daily Summary

Daily Weather History Graph

Daily Weather History Graph

Search for Another Location

Airport or City:

Trip Planner

Search our weather history database for the weather conditions in past years. The results will help you decide how hot, cold, wet, or windy it might be!

Date:

Astronomy

May. 04, 2014 Rise Set
Actual Time 5:42 AM PDT 8:15 PM PDT
Civil Twilight 5:09 AM PDT 8:49 PM PDT
Nautical Twilight 4:26 AM PDT 9:32 PM PDT
Astronomical Twilight 3:37 AM PDT 10:22 PM PDT
Moon 10:10 AM PDT (5/4) 12:25 AM PDT (5/4)
Length of Visible Light 15h 40m
Length of Day
14h 32m
Waxing Crescent, 28% of the Moon is Illuminated
May 4
Waxing Crescent
May 6
First Quarter
May 14
Full
May 21
Last Quarter
May 28
New

Hourly Weather History & Observations

Time (PDT) Temp. Dew Point Humidity Pressure Visibility Wind Dir Wind Speed Gust Speed Precip Events Conditions
12:53 AM 55.0 °F 37.9 °F 53% 29.73 in 10.0 mi SSW 18.4 mph - N/A   Partly Cloudy
1:53 AM 55.0 °F 37.0 °F 51% 29.73 in 10.0 mi SSW 18.4 mph 24.2 mph N/A   Scattered Clouds
2:53 AM 53.1 °F 37.9 °F 57% 29.75 in 10.0 mi South 11.5 mph - N/A   Clear
3:53 AM 50.0 °F 39.0 °F 66% 29.75 in 10.0 mi Variable 5.8 mph - N/A   Partly Cloudy
4:53 AM 51.1 °F 37.9 °F 61% 29.76 in 10.0 mi South 9.2 mph - N/A   Clear
5:53 AM 51.1 °F 37.0 °F 59% 29.75 in 10.0 mi South 8.1 mph - N/A   Clear
6:53 AM 52.0 °F 37.9 °F 59% 29.75 in 10.0 mi South 15.0 mph - N/A   Clear
7:53 AM 54.0 °F 39.0 °F 57% 29.76 in 10.0 mi South 18.4 mph 26.5 mph N/A   Clear
8:53 AM 57.0 °F 41.0 °F 55% 29.77 in 10.0 mi South 23.0 mph 28.8 mph N/A   Scattered Clouds
9:53 AM 59.0 °F 39.9 °F 49% 29.77 in 10.0 mi South 20.7 mph 27.6 mph N/A   Scattered Clouds
10:53 AM 60.1 °F 39.0 °F 46% 29.77 in 10.0 mi SSW 19.6 mph 27.6 mph N/A   Mostly Cloudy
11:53 AM 61.0 °F 37.9 °F 42% 29.78 in 10.0 mi SSW 25.3 mph 39.1 mph N/A   Mostly Cloudy
12:53 PM 62.1 °F 36.0 °F 38% 29.77 in 10.0 mi SSW 24.2 mph 33.4 mph N/A   Mostly Cloudy
1:53 PM 64.9 °F 37.0 °F 36% 29.76 in 10.0 mi SSW 18.4 mph 29.9 mph N/A   Mostly Cloudy
2:53 PM 66.0 °F 37.9 °F 36% 29.75 in 10.0 mi SSW 16.1 mph 24.2 mph N/A   Mostly Cloudy
3:53 PM 64.0 °F 37.9 °F 38% 29.75 in 10.0 mi SSW 19.6 mph 27.6 mph N/A   Mostly Cloudy
4:53 PM 64.0 °F 37.9 °F 38% 29.75 in 10.0 mi SSW 16.1 mph 25.3 mph N/A   Mostly Cloudy
5:53 PM 61.0 °F 37.0 °F 41% 29.76 in 10.0 mi WSW 11.5 mph 20.7 mph 0.00 in   Scattered Clouds
6:53 PM 61.0 °F 37.0 °F 41% 29.76 in 10.0 mi SW 12.7 mph - N/A   Mostly Cloudy
7:53 PM 57.9 °F 37.0 °F 46% 29.77 in 10.0 mi SW 10.4 mph - N/A   Scattered Clouds
8:53 PM 55.0 °F 37.9 °F 53% 29.80 in 10.0 mi WSW 4.6 mph - N/A   Mostly Cloudy
9:53 PM 54.0 °F 37.9 °F 55% 29.82 in 10.0 mi West 8.1 mph - N/A   Mostly Cloudy
10:53 PM 51.8 °F 37.4 °F 58% 29.84 in 10.0 mi West 3.5 mph - N/A   Scattered Clouds
11:53 PM 52.0 °F 37.9 °F 59% 29.85 in 10.0 mi Calm Calm - N/A   Mostly Cloudy